Regional Weather Roundup
Issued by NWS Northern Indiana

Home | Current Version | Previous Version | Text Only | Print | Product List | Glossary On
Versions: 1 2 3 4 5 6 7 8 9 10 11 12 13 14 15 16 17 18 19 20 21 22 23 24 25 26 27 28 29 30 31 32 33 34 35 36 37 38 39 40 41 42 43 44 45 46 47 48 49 50
000
ASUS43 KIWX 241710
RWRIWX

KIWX WEATHER ROUNDUP
NATIONAL WEATHER SERVICE NORTHERN INDIANA
100 PM EDT THU MAY 24 2018

NOTE: "FAIR" INDICATES FEW OR NO CLOUDS BELOW 12,000 FEET WITH NO
SIGNIFICANT WEATHER AND/OR OBSTRUCTIONS TO VISIBILITY.

* THESE STATIONS ARE NOT UNDER NWS QUALITY CONTROL. THEY ALSO MAY NOT
  REPORT WEATHER SUCH AS PRECIPITATION OR FOG.

INZ001>027-241800-
NORTHERN INDIANA

CITY           SKY/WX    TMP DP  RH WIND       PRES   REMARKS
GARY*          MOSUNNY   82  50  32 SE8       30.19F
VALPARAISO     FAIR      81  55  40 S7        30.20F
LAPORTE*       FAIR      78  52  40 NE5       30.21S
KNOX*          FAIR      79  50  36 CALM      30.19F
SOUTH BEND     FAIR      76  50  40 S8        30.21F
ELKHART*       FAIR      81  50  34 S8        30.21F
GOSHEN         FAIR      78  54  43 MISG      30.21F
ROCHESTER*     FAIR      81  46  30 S6        30.20F
WARSAW*        FAIR      77  50  38 E6        30.21F
AUBURN*        FAIR      77  52  41 E8        30.23F
FORT WAYNE     FAIR      78  49  35 S6        30.22F
PERU/GRISSOM   FAIR      78  55  43 E6        30.19F
MARION*        FAIR      77  50  39 SE3       30.21F

$$
INZ028>050-241800-
CENTRAL INDIANA

CITY           SKY/WX    TMP DP  RH WIND       PRES   REMARKS
LAFAYETTE      FAIR      79  52  38 CALM      30.18F
KOKOMO*        FAIR      78  54  43 S7        30.21F
MUNCIE*        FAIR      79  47  32 S5        30.21F
INDIANAPOLIS   FAIR      77  55  46 SE9       30.19F

$$
MIZ043>046-050>051-056>058-064>065-071>073-077>080-241800-
SOUTHWEST LOWER MICHIGAN

CITY           SKY/WX    TMP DP  RH WIND       PRES   REMARKS
BATTLE CREEK   FAIR      77  54  44 SW8       30.22F
BENTON HARBOR  FAIR      79  54  41 CALM      30.19F
COLDWATER*     FAIR      77  46  33 CALM      30.21F
HILLSDALE*     FAIR      77  45  31 CALM      30.23F
HOLLAND        FAIR      79  55  43 W12       30.20F
GRAND RAPIDS   PTSUNNY   78  55  44 SW9       30.20F
KALAMAZOO      FAIR      79  51  37 S8        30.21F
STURGIS*       FAIR      77  47  34 SE5       30.21F
THREE RIVERS*  FAIR      77  51  40 CALM      30.22F

$$
OHZ001>008-015>018-024>025-241800-
NORTHWEST OHIO

CITY           SKY/WX    TMP DP  RH WIND       PRES   REMARKS
DEFIANCE       FAIR      78  48  34 VRB6      30.23F
FINDLAY        FAIR      79  47  32 VRB5      30.21F
TOLEDO EXPRESS FAIR      80  51  36 NW7       30.21F
TOLEDO METCALF FAIR      79  46  31 CALM      30.22F
LIMA           FAIR      78  47  33 SE10      30.22F

$$
AND FOR LAKE MICHIGAN COASTAL AND OPEN LAKE BUOY OBSERVATIONS

STATION/POSITION TEMP    WIND        PRES    VSBY  WAVE
                 AIR SEA DIR/SP/G                  HT/PER
                 (F)     (DEG/KT/KT) (MB)    (MI)  (FT/S)
CALUMET HARBOR    79     170/  6/ 11 1021.4F
MICHIGAN CITY     76     170/  6/  8   N/A
BURNS HARBOR      78     200/  3/  9 1022.7S
SAINT JOSEPH      78     230/  2/  3 1023.4
SOUTH LAKE BUOY   49 40  150/  8/  8 1022.7F         0
4 MI NW BRIDGMAN  70 56  310/  4/  4 1022.4          0
MICHIGAN CITY     70 60  290/  2/  4   N/A           0

$$
&&




USA.gov is the U.S. government's official web portal to all federal, state and local government web resources and services.